05:11
Airports
History
Links
Donate
Help keep this website running!
PayPal
Bitcoin
This page is community maintained. The information is intended for PC simulator navigation or reference.
Always use approved charts for navigation.
U40
Albion Municipal
Albion Municipal (U40)
Albion, Idaho, United States (83311)
4
Lat/Lng:42° 23' 51.68" N / 113° 33' 27.03" W
42.397689 / -113.557507
Elevation:4777'ft / 1456mMSL
ID / ICAO:U40
Runways:1
Longest:07-25
Grass 1,368m / 4,488ft
Nearby Weather04:53 GMT 2017-12-18
Nearby weather at KBYI, Burley Muni located 14.8 nautical miles from U40
Altimeter: 30.23
Visibility: 10.0 statute miles
Wind: 0 knots (from 000°)
Temp: 0°c / 32°f
Humidity: %

METAR: KBYI 180453Z AUTO 00000KT 10SM BKN049 OVC060 00/M05 A3023 RMK AO2 SLP264 T00001050

(Powered by phpweather)
Nearby VORs <50NM
Nearby NDBs
Runway 07 / 25
Dimensions:1367.9 x 53.3m 4488' x 175'ft
Surface:Grass
Runway 07 [A]Runway 25 [B]
Heading:085°TH 265°TH
Lat:
Lng:
42° 23' 50.13"N
113° 33' 57.04"W
42° 23' 53.23"N
113° 32' 57.01"W
User Notes and Comments
42° 23' 51.68" N / 113° 33' 27.03" W
Distance To
Airport ID:
Nearby Airports
(U) Burley Muni 14.8 NM
KBYI ( WX ) NW 312°
4 Interstate 15.3 NM
0U5 ESE 122°
4 Oakley Muni 19.9 NM
1U6 SW 235°
4 Hazelton Muni 32.0 NM
U94 WNW 292°
4 Bear Trap 41.3 NM
1U0 NNE 14°
4 Laidlaw Corrals 45.1 NM
U99 NNW 348°
(U) American Falls 46.4 NM
U01 NE 53°
VFR Chart
Flight Planning at SkyVector.com